Location: *
(58.7167°N, 26.1833°E)
Time: 03:16:27
(UTC+00:00)

Okean 2 - Pass Details

Date: 25 August 2019
Orbit: 561 x 577 km, 82.5° (Epoch: 20 October)

Event Time Altitude Azimuth Distance (km) Brightness Sun altitude
Rises 18:37:17 0° 349° (NNW) 2,783 7.7 -7.7°
Reaches altitude 10° 18:39:35 10° 356° (N) 1,879 6.6 -8.0°
Maximum altitude 18:43:31 42° 68° (ENE) 817 4.0 -8.4°
Enters shadow 18:47:14 11° 140° (SE) 1,784 5.3 -8.8°
